Wind_Speed
21 21 21 21 21 21 22 22 23 22 22 21 21 21 21 21 22 22 22 22 22 22 22 22 23 23 23 23 23 23 23 23 23 23 23 24 24 24 24 24 24 24 24 24
21 22 22 22 22 22 22 22 22 23 23 22 22 22 22 22 23 23 22 22 22 22 22 23 23 23 23 23 23 23 23 24 24 24 24 24 24 24 24 24 24 24 24 25
22 22 23 23 22 23 23 23 23 23 23 23 22 22 22 22 22 22 23 23 23 22 22 23 23 23 23 23 23 24 25 25 25 25 24 24 24 24 25 25 25 25 25 26
23 23 24 23 22 22 23 24 23 23 23 24 24 23 23 23 22 22 23 23 24 23 23 23 23 24 24 24 25 25 26 26 25 26 25 25 25 25 25 26 26 26 27 27
23 24 24 23 23 23 23 23 23 23 24 24 24 24 24 23 23 23 24 24 24 24 24 24 24 25 25 25 26 26 26 26 27 27 26 26 26 26 26 27 27 27 28 28
24 24 24 23 23 23 23 23 23 24 24 24 24 24 24 24 24 24 24 25 25 25 24 25 25 26 26 26 26 27 27 27 27 27 27 27 27 27 27 28 28 29 29 29
24 24 24 23 23 24 24 24 24 24 25 25 25 25 25 25 25 25 25 25 26 26 25 25 26 26 27 27 28 28 28 28 28 28 27 27 28 28 28 29 29 30 30 29
25 25 25 24 24 24 24 25 25 25 25 25 25 25 26 25 25 25 26 26 26 26 26 26 26 26 27 27 28 28 29 29 28 28 28 28 28 29 29 30 30 31 31 30
26 26 25 25 25 26 26 26 26 26 27 26 25 25 25 26 26 26 26 26 26 26 26 26 26 26 27 27 28 28 29 29 29 28 29 29 30 31 31 31 32 32 32 31
27 27 27 26 26 27 27 26 26 26 26 26 26 25 25 25 26 25 26 26 27 27 27 27 27 27 28 28 28 29 30 30 30 30 30 31 31 32 32 32 32 32 31 31
28 28 28 28 28 28 28 28 28 27 27 26 26 26 26 26 26 26 26 27 28 28 28 28 28 28 28 28 29 29 30 30 30 30 31 31 31 32 32 32 31 31 31 31
29 29 29 29 29 29 29 29 29 28 28 28 27 27 27 28 27 27 28 28 29 29 29 29 29 29 29 30 30 30 30 30 30 31 31 31 31 31 31 32 32 32 32 31
29 28 29 29 29 30 30 30 30 30 29 29 29 29 29 29 29 29 29 30 30 30 30 30 30 30 31 31 31 31 31 30 30 30 31 31 31 31 32 32 32 32 32 32
29 29 29 29 29 29 30 30 30 30 30 29 29 29 29 29 29 29 30 30 30 30 31 31 31 30 30 31 31 31 31 31 31 31 31 31 32 33 33 33 32 32 32 32
29 29 29 29 29 29 29 29 30 30 30 30 30 30 30 30 30 30 30 30 31 31 31 32 32 32 32 32 32 32 32 32 33 32 32 33 33 33 33 33 33 33 33 33
28 28 28 28 28 28 29 29 30 30 30 30 30 30 31 31 31 31 32 32 31 31 32 33 33 33 32 32 32 32 33 34 34 34 34 34 34 34 33 33 34 34 33 33
29 29 29 29 29 29 29 29 30 30 30 30 30 30 30 31 31 31 31 31 31 31 32 32 33 32 32 32 33 33 33 34 34 35 34 34 34 35 35 35 35 35 34 34
29 29 29 29 29 28 29 29 30 30 30 30 30 30 31 31 31 32 32 31 31 31 32 32 32 33 33 33 33 33 33 33 34 34 34 34 35 35 35 35 36 36 35 35
28 29 29 29 29 29 29 29 29 29 29 29 29 30 31 31 31 32 32 32 32 32 32 32 32 33 33 33 33 33 33 33 33 34 34 34 35 35 35 35 36 36 36 35
29 29 28 28 28 28 28 28 28 28 29 29 29 30 30 31 31 32 32 32 33 33 33 33 33 34 34 34 35 34 34 34 34 34 34 34 35 35 35 35 35 35 35 35
28 28 28 28 27 27 27 28 28 29 29 29 30 30 30 31 31 32 32 32 33 33 34 34 34 34 34 35 35 35 34 34 34 33 33 33 33 34 34 34 34 34 34 34
27 27 28 28 28 28 28 28 28 29 29 30 30 31 31 32 32 32 32 33 33 33 33 33 33 33 34 34 33 33 34 34 34 34 34 33 33 33 34 33 33 33 33 33
26 27 27 27 27 28 28 29 29 30 30 30 31 31 32 33 33 32 32 32 33 33 33 33 33 33 33 33 34 34 34 35 35 34 34 34 34 33 33 32 32 32 32 33
26 26 26 27 27 28 29 29 30 30 31 31 32 32 33 33 33 33 33 32 32 33 33 33 33 34 34 34 34 35 35 35 35 35 35 34 34 33 33 33 33 33 33 33
27 27 27 28 29 29 30 30 31 31 32 32 33 33 33 33 33 32 32 31 31 32 32 33 33 34 34 34 34 34 34 34 35 35 34 34 34 34 34 34 34 34 34 34
28 28 29 29 30 30 31 31 31 31 32 32 32 33 33 32 32 32 31 31 31 31 32 33 33 34 34 34 34 34 33 33 33 33 33 33 34 34 34 34 34 35 35 34
29 30 30 31 31 31 31 31 32 32 32 32 32 32 32 31 31 31 31 32 32 32 32 33 33 33 33 33 32 32 32 32 33 33 33 33 33 33 33 34 34 34 34 33
Wind_Direction
257 257 257 258 259 261 262 264 266 268 269 269 270 270 271 271 272 273 274 273 273 275 275 275 277 277 277 278 278 278 279 280 282 283 283 283 285 285 286 286 286 286 287 288
261 259 260 260 261 262 263 263 265 268 268 269 270 271 272 273 271 271 272 272 273 275 275 275 277 277 276 277 277 278 280 281 282 283 282 284 285 285 286 286 286 287 287 288
263 263 263 262 262 263 264 264 267 269 270 270 270 271 272 274 274 273 272 273 273 273 273 275 275 275 276 276 276 278 280 283 284 284 283 284 285 286 286 285 285 286 287 288
262 263 263 266 264 264 265 266 267 269 270 270 270 271 271 273 274 274 273 273 273 274 274 274 275 275 275 276 276 278 279 282 285 286 286 287 288 288 288 287 286 287 288 288
261 263 265 265 264 265 268 267 266 267 268 269 269 270 271 272 272 273 273 272 273 274 275 274 274 274 275 277 277 279 281 283 285 285 285 286 287 288 288 287 287 287 289 289
263 265 266 265 265 265 266 266 266 268 269 270 269 269 270 271 271 272 274 273 272 273 275 274 273 273 274 276 277 279 281 283 284 285 285 286 287 288 288 288 287 287 288 290
264 265 266 265 266 267 267 269 269 270 270 270 269 268 269 270 270 272 274 275 272 272 273 274 274 275 275 277 278 279 280 281 282 283 285 286 286 288 288 289 288 288 288 289
264 265 267 266 266 267 268 270 271 270 270 272 271 270 269 269 270 272 275 276 275 273 274 275 276 276 277 278 280 281 280 280 282 283 284 286 287 288 289 290 289 288 289 289
265 266 266 266 267 268 269 271 272 272 272 272 272 271 269 268 269 270 273 274 276 275 275 276 277 277 277 278 281 282 280 281 281 282 285 286 287 288 289 289 289 289 289 289
265 265 264 265 265 266 267 269 271 273 274 273 272 271 270 269 269 270 273 274 276 276 275 277 278 277 278 278 280 281 280 281 282 283 285 287 288 289 290 289 289 289 289 289
266 267 266 264 265 266 267 268 270 272 273 273 272 270 270 269 269 270 272 275 277 278 277 277 277 277 277 279 280 281 280 280 281 283 285 287 288 290 290 290 289 289 289 288
266 266 265 265 264 265 267 269 270 271 272 272 271 271 271 270 269 270 272 275 277 278 278 277 277 277 277 278 280 281 280 280 281 283 284 286 288 289 289 289 289 289 288 287
266 266 266 266 266 267 268 269 270 271 272 273 272 271 271 271 271 272 274 275 277 278 278 278 278 277 277 278 279 279 280 280 281 283 285 286 287 288 287 287 288 288 287 287
266 266 266 267 268 268 268 270 271 272 272 273 272 272 271 271 272 273 275 277 278 280 281 280 280 279 279 279 279 279 280 280 281 282 283 286 287 288 287 286 286 287 287 287
266 266 267 268 268 268 269 270 271 272 272 273 273 272 271 271 273 274 276 277 278 281 283 283 282 281 280 279 279 279 279 280 281 282 283 285 287 287 287 288 287 287 286 285
265 267 269 269 269 269 269 270 271 271 272 274 274 274 273 273 274 275 276 278 279 281 283 283 283 281 280 280 280 280 281 281 282 281 282 284 285 286 287 287 288 288 286 286
265 267 268 269 270 270 270 270 270 271 272 272 274 275 275 275 275 276 277 278 279 281 283 283 284 284 282 282 282 282 282 283 283 282 282 283 284 285 287 287 287 288 287 286
266 267 268 269 270 270 270 270 270 271 272 273 275 276 276 277 277 276 277 278 279 281 282 283 284 283 283 283 283 283 283 284 285 285 284 284 284 285 286 287 288 288 288 287
266 268 269 269 270 270 270 270 271 273 273 275 276 278 278 278 278 278 278 278 279 280 281 282 283 283 283 283 283 284 284 285 284 284 284 284 284 284 285 286 287 286 287 287
267 268 269 269 269 269 269 270 272 274 275 276 278 279 280 280 279 279 278 279 280 281 281 282 282 282 283 283 283 284 284 284 284 284 284 283 283 284 285 286 287 287 286 287
267 268 268 268 268 268 270 271 272 274 275 276 277 279 280 281 280 281 281 281 281 282 282 282 282 282 282 283 284 284 284 284 284 284 284 285 285 286 286 287 287 288 288 288
269 269 268 267 267 268 270 272 273 273 275 276 277 279 280 280 281 282 282 282 283 283 283 282 282 282 282 283 283 284 284 285 284 285 285 286 287 287 287 287 288 289 289 289
271 271 270 269 269 270 271 273 274 275 276 277 278 279 279 280 282 283 283 282 283 283 282 282 282 283 283 283 283 284 284 285 285 285 286 286 287 288 288 288 289 289 289 289
270 270 270 270 270 271 272 274 275 276 277 278 279 279 280 281 282 283 283 283 282 282 282 281 282 283 283 282 283 283 284 284 284 284 286 286 286 287 287 288 289 289 290 290
271 271 270 270 270 270 272 273 275 278 278 278 279 280 281 281 282 282 282 283 282 283 282 282 282 283 284 284 283 283 283 284 284 284 285 286 287 287 287 288 289 289 289 289
270 270 270 271 271 272 273 274 275 277 279 279 280 281 281 281 281 282 282 282 282 282 282 283 283 284 285 286 285 284 284 285 285 285 286 287 288 287 287 288 289 290 289 288
270 271 271 271 271 273 273 274 276 278 279 281 282 282 281 281 281 281 281 282 284 284 284 285 285 286 287 287 286 286 286 286 287 287 288 288 289 289 289 289 289 290 289 288
Height
5797 5798 5799 5800 5800 5801 5801 5801 5802 5802 5802 5802 5801 5801 5801 5800 5799 5799 5798 5798 5797 5796 5796 5795 5794 5793 5792 5791 5790 5789 5788 5787 5785 5784 5782 5780 5779 5777 5775 5773 5771 5769 5768 5766
5791 5792 5793 5793 5795 5795 5795 5795 5795 5795 5795 5795 5795 5794 5794 5793 5793 5793 5792 5791 5790 5790 5789 5788 5787 5786 5786 5785 5784 5782 5781 5780 5778 5776 5775 5773 5771 5769 5768 5766 5764 5762 5760 5759
5785 5786 5786 5787 5788 5788 5788 5788 5789 5788 5789 5788 5788 5788 5788 5787 5786 5786 5785 5785 5784 5783 5782 5782 5781 5780 5779 5778 5777 5776 5774 5772 5771 5769 5767 5765 5764 5762 5760 5758 5757 5755 5753 5751
5778 5780 5779 5783 5781 5782 5782 5782 5782 5781 5782 5781 5781 5781 5781 5780 5780 5779 5778 5778 5777 5776 5775 5774 5773 5773 5772 5771 5770 5768 5767 5765 5763 5762 5759 5758 5756 5754 5753 5751 5749 5747 5746 5744
5772 5772 5773 5774 5774 5774 5775 5775 5774 5774 5774 5774 5774 5774 5773 5773 5773 5772 5771 5770 5769 5769 5768 5767 5766 5765 5764 5763 5762 5761 5759 5757 5756 5754 5752 5750 5749 5747 5745 5743 5741 5739 5738 5736
5765 5765 5766 5768 5767 5767 5768 5767 5767 5767 5767 5767 5766 5767 5767 5766 5765 5765 5764 5763 5762 5761 5760 5759 5758 5758 5757 5756 5754 5753 5752 5750 5748 5747 5745 5743 5741 5739 5737 5735 5733 5731 5729 5727
5758 5757 5758 5760 5759 5760 5761 5761 5760 5759 5759 5759 5759 5759 5759 5758 5758 5757 5756 5755 5754 5753 5752 5751 5750 5750 5749 5748 5747 5745 5744 5742 5741 5739 5737 5735 5733 5731 5729 5727 5725 5723 5721 5719
5751 5751 5753 5752 5752 5753 5753 5752 5751 5751 5751 5751 5751 5750 5750 5750 5750 5749 5748 5747 5746 5745 5744 5743 5742 5742 5741 5740 5739 5737 5736 5734 5733 5731 5729 5727 5725 5723 5721 5719 5717 5715 5713 5710
5744 5745 5744 5744 5744 5744 5744 5744 5743 5743 5743 5742 5742 5742 5742 5742 5741 5741 5740 5739 5738 5737 5736 5735 5734 5733 5732 5731 5730 5729 5727 5725 5724 5722 5720 5718 5716 5714 5712 5710 5708 5706 5703 5701
5735 5735 5735 5735 5735 5735 5735 5735 5735 5735 5734 5734 5734 5734 5733 5733 5733 5732 5732 5731 5730 5729 5728 5727 5726 5725 5724 5722 5721 5720 5718 5717 5715 5713 5712 5710 5708 5705 5703 5701 5699 5696 5694 5692
5726 5727 5726 5727 5727 5727 5726 5726 5726 5726 5726 5725 5725 5725 5725 5725 5724 5724 5723 5723 5722 5721 5720 5719 5717 5716 5715 5713 5712 5710 5709 5707 5706 5704 5702 5700 5698 5696 5694 5692 5689 5687 5685 5682
5717 5718 5717 5718 5717 5717 5717 5717 5717 5717 5717 5716 5716 5716 5716 5716 5715 5715 5715 5714 5713 5712 5710 5709 5708 5707 5705 5704 5703 5702 5700 5698 5697 5695 5693 5691 5689 5687 5684 5682 5680 5677 5675 5673
5707 5707 5707 5708 5708 5708 5708 5708 5707 5707 5707 5707 5707 5707 5706 5706 5706 5706 5705 5704 5703 5702 5701 5700 5698 5697 5696 5695 5693 5692 5690 5689 5687 5685 5683 5681 5679 5676 5674 5672 5669 5667 5665 5663
5697 5698 5698 5698 5699 5698 5698 5698 5698 5698 5698 5698 5698 5697 5697 5697 5697 5696 5696 5695 5694 5693 5692 5690 5688 5687 5686 5685 5683 5682 5681 5679 5677 5675 5673 5671 5669 5666 5664 5661 5659 5657 5655 5652
5688 5689 5689 5689 5689 5689 5689 5689 5689 5689 5689 5688 5688 5687 5687 5687 5687 5687 5686 5685 5684 5683 5682 5680 5679 5677 5676 5674 5673 5671 5670 5668 5667 5665 5663 5661 5658 5656 5653 5651 5648 5646 5644 5642
5679 5679 5680 5680 5680 5680 5680 5680 5680 5679 5679 5679 5678 5678 5677 5677 5677 5676 5676 5675 5674 5673 5672 5670 5668 5667 5666 5664 5663 5661 5659 5658 5656 5654 5652 5650 5648 5645 5643 5640 5638 5635 5633 5631
5670 5670 5670 5671 5671 5671 5670 5670 5670 5670 5670 5669 5669 5668 5667 5667 5666 5666 5665 5665 5664 5663 5662 5660 5658 5657 5655 5654 5652 5650 5649 5647 5645 5642 5641 5639 5637 5634 5632 5630 5627 5625 5622 5620
5660 5661 5661 5661 5661 5661 5661 5661 5660 5660 5660 5659 5659 5658 5658 5657 5656 5656 5655 5654 5653 5652 5651 5650 5648 5647 5645 5643 5642 5640 5638 5636 5633 5631 5629 5627 5625 5623 5621 5618 5616 5613 5611 5608
5651 5651 5651 5651 5651 5651 5651 5651 5651 5650 5650 5650 5649 5648 5647 5646 5646 5645 5644 5643 5642 5642 5640 5639 5637 5636 5634 5632 5631 5629 5627 5625 5622 5620 5618 5616 5614 5611 5609 5607 5604 5601 5599 5596
5641 5641 5641 5641 5641 5641 5641 5641 5641 5641 5640 5640 5639 5638 5637 5636 5635 5634 5633 5633 5632 5631 5629 5628 5627 5625 5623 5621 5619 5617 5615 5613 5611 5609 5606 5604 5602 5600 5597 5595 5592 5590 5587 5585
5631 5631 5631 5632 5632 5632 5632 5632 5631 5631 5631 5630 5629 5628 5627 5626 5625 5624 5623 5622 5621 5619 5618 5617 5615 5614 5612 5610 5608 5606 5604 5602 5600 5598 5595 5593 5591 5589 5586 5584 5581 5579 5576 5574
5621 5621 5622 5622 5622 5622 5622 5622 5622 5621 5621 5620 5619 5618 5617 5616 5615 5613 5612 5611 5610 5608 5607 5605 5604 5602 5600 5599 5597 5595 5593 5591 5589 5587 5584 5582 5580 5577 5575 5573 5570 5568 5565 5563
5612 5612 5612 5612 5612 5612 5612 5612 5612 5611 5610 5610 5609 5608 5607 5606 5604 5603 5602 5600 5598 5597 5596 5594 5593 5591 5589 5587 5586 5584 5582 5580 5578 5575 5573 5571 5569 5566 5564 5562 5559 5557 5555 5552
5602 5602 5602 5602 5602 5602 5602 5602 5601 5601 5600 5599 5598 5597 5596 5595 5594 5592 5590 5589 5588 5586 5585 5583 5582 5580 5578 5576 5574 5573 5571 5569 5566 5564 5562 5560 5557 5555 5553 5551 5549 5546 5544 5541
5593 5593 5593 5593 5593 5592 5592 5591 5591 5590 5589 5589 5588 5586 5585 5584 5583 5581 5580 5578 5577 5575 5574 5572 5570 5568 5566 5565 5563 5561 5559 5557 5555 5553 5551 5548 5546 5544 5542 5540 5537 5535 5532 5530
5584 5583 5583 5583 5583 5582 5581 5581 5580 5579 5579 5578 5576 5575 5574 5572 5571 5570 5569 5567 5566 5564 5562 5561 5559 5557 5555 5553 5551 5549 5547 5545 5543 5541 5539 5537 5535 5532 5530 5528 5526 5523 5520 5518
5574 5573 5573 5572 5572 5571 5571 5570 5569 5569 5568 5567 5565 5564 5562 5561 5560 5559 5558 5556 5555 5553 5551 5550 5548 5546 5543 5541 5539 5537 5535 5533 5531 5529 5527 5525 5523 5521 5518 5516 5514 5511 5509 5506